,,,PA_Meas_PMT16A,,PR_Meas_QMR101_102,,RH_Meas_QMH101,,SR_Meas_QMS101,,TA_Meas_QMH101,,GenWind,,GenWind,
date,time,status,PA,status,PR,status,RH,status,SR,status,TA,status,DirAvg,status,SpdAvg,
2010-12-25, 00:00:05,VALID,1007.32,VALID,0,VALID,103.542,VALID,0.105969,VALID,23.4974,VALID,66,VALID,0,
2010-12-25, 00:01:05,VALID,1007.33,VALID,0,VALID,103.542,VALID,0.105969,VALID,23.4974,VALID,40,VALID,0,
2010-12-25, 00:02:05,VALID,1007.29,VALID,0,VALID,103.52,VALID,0.105969,VALID,23.4974,VALID,23,VALID,0,
2010-12-25, 00:03:05,VALID,1007.32,VALID,0,VALID,103.512,VALID,0.211938,VALID,23.4974,VALID,23,VALID,0,
2010-12-25, 00:04:05,VALID,1007.29,VALID,0,VALID,103.52,VALID,0.105969,VALID,23.4779,VALID,23,VALID,0,
2010-12-25, 00:05:05,VALID,1007.26,VALID,0,VALID,103.52,VALID,0.105969,VALID,23.4779,VALID,23,VALID,0,
2010-12-25, 00:06:05,VALID,1007.27,VALID,0,VALID,103.542,VALID,0.105969,VALID,23.4779,VALID,23,VALID,0,
2010-12-25, 00:07:05,VALID,1007.24,VALID,0,VALID,103.558,VALID,0.105969,VALID,23.4584,VALID,23,VALID,0,
2010-12-25, 00:08:05,VALID,1007.23,VALID,0,VALID,103.573,VALID,0.105969,VALID,23.4584,VALID,23,VALID,0,
2010-12-25, 00:09:05,VALID,1007.22,VALID,0,VALID,103.588,VALID,0.105969,VALID,23.4584,VALID,18,VALID,0.00546875,
2010-12-25, 00:10:05,VALID,1007.19,VALID,0,VALID,103.603,VALID,0,VALID,23.4407,VALID,353,VALID,0.0078125,
2010-12-25, 00:11:05,VALID,1007.18,VALID,0,VALID,103.634,VALID,0,VALID,23.4425,VALID,353,VALID,0,
2010-12-25, 00:12:05,VALID,1007.2,VALID,0,VALID,103.657,VALID,0,VALID,23.4017,VALID,353,VALID,0,
2010-12-25, 00:13:05,VALID,1007.16,VALID,0,VALID,103.664,VALID,0,VALID,23.4017,VALID,353,VALID,0,
2010-12-25, 00:14:05,VALID,1007.14,VALID,0,VALID,103.68,VALID,0,VALID,23.3823,VALID,22,VALID,0.0179687,
2010-12-25, 00:15:05,VALID,1007.11,VALID,0,VALID,103.703,VALID,0,VALID,23.3823,VALID,98,VALID,0.0105469,
2010-12-25, 00:16:04,VALID,1007.12,VALID,0,VALID,103.71,VALID,0,VALID,23.4035,VALID,98,VALID,0,
2010-12-25, 00:17:04,VALID,1007.11,VALID,0,VALID,103.718,VALID,0,VALID,23.4035,VALID,52,VALID,0.383594,
2010-12-25, 00:18:04,VALID,1007.09,VALID,0,VALID,103.726,VALID,0,VALID,23.4035,VALID,52,VALID,0.0808594,
2010-12-25, 00:19:04,VALID,1007.08,VALID,0,VALID,103.718,VALID,0,VALID,23.3823,VALID,52,VALID,0,
2010-12-25, 00:20:04,VALID,1007.07,VALID,0,VALID,103.748,VALID,0,VALID,23.3823,VALID,43,VALID,0.179297,
2010-12-25, 00:21:04,VALID,1007.04,VALID,0,VALID,103.748,VALID,0,VALID,23.3628,VALID,43,VALID,0,
2010-12-25, 00:22:04,VALID,1007.03,VALID,0,VALID,103.756,VALID,0,VALID,23.3628,VALID,60,VALID,0,
2010-12-25, 00:23:04,VALID,1007.05,VALID,0,VALID,103.748,VALID,0,VALID,23.3628,VALID,60,VALID,0,
2010-12-25, 00:24:04,VALID,1007.05,VALID,0,VALID,103.741,VALID,0,VALID,23.3823,VALID,60,VALID,0,
2010-12-25, 00:25:04,VALID,1007.02,VALID,0,VALID,103.741,VALID,0,VALID,23.3628,VALID,60,VALID,0,
2010-12-25, 00:26:04,VALID,1007.03,VALID,0,VALID,103.748,VALID,0,VALID,23.3628,VALID,60,VALID,0,
2010-12-25, 00:27:04,VALID,1007.01,VALID,0,VALID,103.748,VALID,0,VALID,23.3628,VALID,60,VALID,0,
2010-12-25, 00:28:04,VALID,1007.02,VALID,0,VALID,103.741,VALID,0,VALID,23.3628,VALID,60,VALID,0,
2010-12-25, 00:29:04,VALID,1007.01,VALID,0,VALID,103.733,VALID,0,VALID,23.3628,VALID,60,VALID,0,
2010-12-25, 00:30:04,VALID,1006.99,VALID,0,VALID,103.741,VALID,0,VALID,23.3628,VALID,60,VALID,0,
2010-12-25, 00:31:04,VALID,1007.01,VALID,0,VALID,103.726,VALID,0,VALID,23.3433,VALID,40,VALID,0,
2010-12-25, 00:32:04,VALID,1007.02,VALID,0,VALID,103.733,VALID,0,VALID,23.384,VALID,82,VALID,0,
2010-12-25, 00:33:04,VALID,1006.99,VALID,0,VALID,103.733,VALID,0,VALID,23.3628,VALID,82,VALID,0,
2010-12-25, 00:34:04,VALID,1006.99,VALID,0,VALID,103.733,VALID,0,VALID,23.384,VALID,82,VALID,0,
2010-12-25, 00:35:04,VALID,1006.96,VALID,0,VALID,103.756,VALID,0,VALID,23.3645,VALID,65,VALID,0,
2010-12-25, 00:36:04,VALID,1007,VALID,0,VALID,103.748,VALID,0,VALID,23.3645,VALID,65,VALID,0,
2010-12-25, 00:37:04,VALID,1006.99,VALID,0,VALID,103.741,VALID,0.105969,VALID,23.3433,VALID,65,VALID,0,
2010-12-25, 00:38:04,VALID,1007.01,VALID,0,VALID,103.756,VALID,0,VALID,23.3238,VALID,65,VALID,0,
2010-12-25, 00:39:04,VALID,1007,VALID,0,VALID,103.741,VALID,0,VALID,23.3238,VALID,65,VALID,0,
2010-12-25, 00:40:04,VALID,1007,VALID,0,VALID,103.748,VALID,0,VALID,23.3451,VALID,65,VALID,0,
2010-12-25, 00:41:04,VALID,1007.03,VALID,0,VALID,103.733,VALID,0,VALID,23.3451,VALID,65,VALID,0,
2010-12-25, 00:42:04,VALID,1007.02,VALID,0,VALID,103.756,VALID,0.105969,VALID,23.3238,VALID,65,VALID,0,
2010-12-25, 00:43:04,VALID,1007.04,VALID,0,VALID,103.756,VALID,0,VALID,23.3238,VALID,65,VALID,0,
2010-12-25, 00:44:04,VALID,1007.04,VALID,0,VALID,103.733,VALID,0,VALID,23.3043,VALID,65,VALID,0,
2010-12-25, 00:45:04,VALID,1007.02,VALID,0,VALID,103.741,VALID,0,VALID,23.3043,VALID,65,VALID,0,
2010-12-25, 00:46:04,VALID,1007,VALID,0,VALID,103.733,VALID,0,VALID,23.3256,VALID,68,VALID,0,
2010-12-25, 00:47:04,VALID,1006.99,VALID,0,VALID,103.748,VALID,0,VALID,23.3043,VALID,68,VALID,0,
2010-12-25, 00:48:04,VALID,1006.98,VALID,0,VALID,103.726,VALID,0,VALID,23.3043,VALID,68,VALID,0,
2010-12-25, 00:49:04,VALID,1006.98,VALID,0,VALID,103.748,VALID,0,VALID,23.2848,VALID,68,VALID,0,
2010-12-25, 00:50:04,VALID,1007,VALID,0,VALID,103.764,VALID,0,VALID,23.3238,VALID,68,VALID,0,
2010-12-25, 00:51:04,VALID,1007.03,VALID,0,VALID,103.748,VALID,0,VALID,23.3238,VALID,68,VALID,0,
2010-12-25, 00:52:04,VALID,1006.97,VALID,0,VALID,103.771,VALID,0,VALID,23.3238,VALID,68,VALID,0,
2010-12-25, 00:53:04,VALID,1006.97,VALID,0,VALID,103.756,VALID,0,VALID,23.3238,VALID,68,VALID,0,
2010-12-25, 00:54:04,VALID,1006.96,VALID,0,VALID,103.779,VALID,0,VALID,23.3061,VALID,68,VALID,0,
2010-12-25, 00:55:04,VALID,1006.93,VALID,0,VALID,103.771,VALID,0.105969,VALID,23.322,VALID,68,VALID,0,
2010-12-25, 00:56:04,VALID,1006.93,VALID,0,VALID,103.779,VALID,0.105969,VALID,23.3026,VALID,68,VALID,0,
2010-12-25, 00:57:04,VALID,1006.92,VALID,0,VALID,103.794,VALID,0.105969,VALID,23.3026,VALID,68,VALID,0,
2010-12-25, 00:58:04,VALID,1006.94,VALID,0,VALID,103.794,VALID,0,VALID,23.3026,VALID,68,VALID,0,
2010-12-25, 00:59:04,VALID,1006.97,VALID,0,VALID,103.809,VALID,0.105969,VALID,23.3238,VALID,68,VALID,0,
2010-12-25, 01:00:04,VALID,1006.94,VALID,0,VALID,103.817,VALID,0.105969,VALID,23.3433,VALID,68,VALID,0,
2010-12-25, 01:01:04,VALID,1006.95,VALID,0,VALID,103.832,VALID,0,VALID,23.3238,VALID,68,VALID,0,
2010-12-25, 01:02:04,VALID,1006.95,VALID,0,VALID,103.825,VALID,0.105969,VALID,23.3043,VALID,68,VALID,0,
2010-12-25, 01:03:04,VALID,1006.96,VALID,0,VALID,103.825,VALID,0.105969,VALID,23.3026,VALID,68,VALID,0,
2010-12-25, 01:04:04,VALID,1006.96,VALID,0,VALID,103.817,VALID,0,VALID,23.3026,VALID,68,VALID,0,
2010-12-25, 01:05:04,VALID,1006.96,VALID,0,VALID,103.817,VALID,0.105969,VALID,23.3026,VALID,68,VALID,0,
2010-12-25, 01:06:04,VALID,1006.93,VALID,0,VALID,103.809,VALID,0,VALID,23.3238,VALID,68,VALID,0,
2010-12-25, 01:07:04,VALID,1006.93,VALID,0,VALID,103.84,VALID,0.105969,VALID,23.2831,VALID,68,VALID,0,
2010-12-25, 01:08:04,VALID,1006.93,VALID,0,VALID,103.809,VALID,0.105969,VALID,23.2831,VALID,68,VALID,0,
2010-12-25, 01:09:04,VALID,1006.93,VALID,0,VALID,103.817,VALID,0.105969,VALID,23.2831,VALID,68,VALID,0,
2010-12-25, 01:10:04,VALID,1006.93,VALID,0,VALID,103.817,VALID,0,VALID,23.2848,VALID,68,VALID,0,
2010-12-25, 01:11:04,VALID,1006.93,VALID,0,VALID,103.832,VALID,0,VALID,23.2848,VALID,68,VALID,0,
2010-12-25, 01:12:04,VALID,1006.95,VALID,0,VALID,103.84,VALID,0,VALID,23.2654,VALID,68,VALID,0,
2010-12-25, 01:13:04,VALID,1006.93,VALID,0,VALID,103.87,VALID,0,VALID,23.2654,VALID,68,VALID,0,
2010-12-25, 01:14:04,VALID,1006.95,VALID,0,VALID,103.886,VALID,0,VALID,23.2654,VALID,68,VALID,0,
2010-12-25, 01:15:04,VALID,1006.89,VALID,0,VALID,103.893,VALID,0,VALID,23.2459,VALID,68,VALID,0,
2010-12-25, 01:16:04,VALID,1006.92,VALID,0,VALID,103.901,VALID,0,VALID,23.2459,VALID,68,VALID,0,
2010-12-25, 01:17:04,VALID,1006.89,VALID,0,VALID,103.916,VALID,0,VALID,23.2264,VALID,68,VALID,0,
2010-12-25, 01:18:04,VALID,1006.85,VALID,0,VALID,103.924,VALID,0,VALID,23.2264,VALID,68,VALID,0,
2010-12-25, 01:19:04,VALID,1006.85,VALID,0,VALID,103.947,VALID,0,VALID,23.2264,VALID,68,VALID,0,
2010-12-25, 01:20:04,VALID,1006.84,VALID,0,VALID,103.962,VALID,0,VALID,23.2282,VALID,68,VALID,0,
2010-12-25, 01:21:04,VALID,1006.83,VALID,0,VALID,103.97,VALID,0,VALID,23.2264,VALID,68,VALID,0,
2010-12-25, 01:22:04,VALID,1006.83,VALID,0,VALID,103.992,VALID,0,VALID,23.2264,VALID,68,VALID,0,
2010-12-25, 01:23:04,VALID,1006.79,VALID,0,VALID,103.992,VALID,0,VALID,23.2069,VALID,68,VALID,0,
2010-12-25, 01:24:04,VALID,1006.82,VALID,0,VALID,104,VALID,0,VALID,23.2069,VALID,68,VALID,0,
2010-12-25, 01:25:04,VALID,1006.8,VALID,0,VALID,104,VALID,0,VALID,23.2087,VALID,68,VALID,0,
2010-12-25, 01:26:04,VALID,1006.8,VALID,0,VALID,104,VALID,0,VALID,23.1874,VALID,68,VALID,0,
2010-12-25, 01:27:04,VALID,1006.8,VALID,0,VALID,104,VALID,0,VALID,23.1679,VALID,68,VALID,0,
2010-12-25, 01:28:04,VALID,1006.8,VALID,0,VALID,104,VALID,0,VALID,23.1892,VALID,68,VALID,0,
2010-12-25, 01:29:04,VALID,1006.78,VALID,0,VALID,104,VALID,0,VALID,23.1485,VALID,68,VALID,0,
2010-12-25, 01:30:04,VALID,1006.8,VALID,0,VALID,104,VALID,0,VALID,23.1697,VALID,68,VALID,0,
2010-12-25, 01:31:04,VALID,1006.77,VALID,0,VALID,104,VALID,0,VALID,23.129,VALID,68,VALID,0,
2010-12-25, 01:32:04,VALID,1006.74,VALID,0,VALID,104,VALID,0,VALID,23.1307,VALID,68,VALID,0,
2010-12-25, 01:33:04,VALID,1006.74,VALID,0,VALID,104,VALID,0,VALID,23.1307,VALID,68,VALID,0,
2010-12-25, 01:34:04,VALID,1006.72,VALID,0,VALID,104,VALID,0,VALID,23.1307,VALID,68,VALID,0,
2010-12-25, 01:35:04,VALID,1006.68,VALID,0,VALID,104,VALID,0,VALID,23.09,VALID,68,VALID,0,
2010-12-25, 01:36:04,VALID,1006.65,VALID,0,VALID,104,VALID,0,VALID,23.09,VALID,68,VALID,0,
2010-12-25, 01:37:04,VALID,1006.66,VALID,0,VALID,104,VALID,0,VALID,23.09,VALID,68,VALID,0,
2010-12-25, 01:38:04,VALID,1006.63,VALID,0,VALID,104,VALID,0,VALID,23.09,VALID,68,VALID,0,
2010-12-25, 01:39:04,VALID,1006.61,VALID,0,VALID,104,VALID,0,VALID,23.0705,VALID,68,VALID,0,
2010-12-25, 01:40:04,VALID,1006.59,VALID,0,VALID,104,VALID,0,VALID,23.0918,VALID,68,VALID,0,
2010-12-25, 01:41:04,VALID,1006.58,VALID,0,VALID,104,VALID,0,VALID,23.0316,VALID,68,VALID,0,
2010-12-25, 01:42:04,VALID,1006.58,VALID,0,VALID,104,VALID,0,VALID,23.0528,VALID,68,VALID,0,
2010-12-25, 01:43:04,VALID,1006.59,VALID,0,VALID,104,VALID,0,VALID,23.0528,VALID,68,VALID,0,
2010-12-25, 01:44:04,VALID,1006.56,VALID,0,VALID,104,VALID,0,VALID,23.0333,VALID,68,VALID,0,
2010-12-25, 01:45:04,VALID,1006.54,VALID,0,VALID,104,VALID,0,VALID,23.0333,VALID,68,VALID,0,
2010-12-25, 01:46:04,VALID,1006.54,VALID,0,VALID,104,VALID,0,VALID,22.9926,VALID,68,VALID,0,
2010-12-25, 01:47:04,VALID,1006.52,VALID,0,VALID,104,VALID,0,VALID,23.0138,VALID,68,VALID,0,
2010-12-25, 01:48:04,VALID,1006.52,VALID,0,VALID,104,VALID,0,VALID,22.9926,VALID,68,VALID,0,
2010-12-25, 01:49:04,VALID,1006.48,VALID,0,VALID,104,VALID,0,VALID,22.9943,VALID,68,VALID,0,
2010-12-25, 01:50:04,VALID,1006.48,VALID,0,VALID,104,VALID,0,VALID,22.9731,VALID,68,VALID,0,
2010-12-25, 01:51:04,VALID,1006.46,VALID,0,VALID,104,VALID,0,VALID,22.9731,VALID,68,VALID,0,
2010-12-25, 01:52:04,VALID,1006.47,VALID,0,VALID,104,VALID,0,VALID,22.9926,VALID,68,VALID,0,
2010-12-25, 01:53:04,VALID,1006.46,VALID,0,VALID,104,VALID,0,VALID,22.9926,VALID,68,VALID,0,
2010-12-25, 01:54:04,VALID,1006.44,VALID,0,VALID,104,VALID,0,VALID,23.0121,VALID,68,VALID,0,
2010-12-25, 01:55:04,VALID,1006.43,VALID,0,VALID,104,VALID,0.105969,VALID,23.0298,VALID,68,VALID,0,
2010-12-25, 01:56:04,VALID,1006.43,VALID,0,VALID,104,VALID,0.105969,VALID,23.0511,VALID,68,VALID,0,
2010-12-25, 01:57:04,VALID,1006.46,VALID,0,VALID,104,VALID,0,VALID,23.0528,VALID,68,VALID,0,
2010-12-25, 01:58:04,VALID,1006.43,VALID,0,VALID,104,VALID,0,VALID,23.0528,VALID,68,VALID,0,
2010-12-25, 01:59:04,VALID,1006.43,VALID,0,VALID,104,VALID,0,VALID,23.0316,VALID,68,VALID,0,
2010-12-25, 02:00:04,VALID,1006.43,VALID,0,VALID,104,VALID,0,VALID,23.0121,VALID,68,VALID,0,
2010-12-25, 02:01:04,VALID,1006.45,VALID,0,VALID,104,VALID,0,VALID,23.0333,VALID,68,VALID,0,
2010-12-25, 02:02:04,VALID,1006.43,VALID,0,VALID,104,VALID,0,VALID,23.0528,VALID,68,VALID,0,
2010-12-25, 02:03:04,VALID,1006.42,VALID,0,VALID,104,VALID,0,VALID,23.0316,VALID,68,VALID,0,
2010-12-25, 02:04:04,VALID,1006.41,VALID,0,VALID,104,VALID,0,VALID,23.0316,VALID,68,VALID,0,
2010-12-25, 02:05:04,VALID,1006.44,VALID,0,VALID,104,VALID,0,VALID,23.0316,VALID,68,VALID,0,
2010-12-25, 02:06:04,VALID,1006.46,VALID,0,VALID,104,VALID,0,VALID,23.0528,VALID,68,VALID,0,
2010-12-25, 02:07:04,VALID,1006.45,VALID,0,VALID,104,VALID,0,VALID,23.0528,VALID,68,VALID,0,
2010-12-25, 02:08:04,VALID,1006.46,VALID,0,VALID,104,VALID,0,VALID,23.0528,VALID,68,VALID,0,
2010-12-25, 02:09:04,VALID,1006.5,VALID,0,VALID,104,VALID,0,VALID,23.0121,VALID,68,VALID,0,
2010-12-25, 02:10:04,VALID,1006.46,VALID,0,VALID,104,VALID,0,VALID,23.0316,VALID,68,VALID,0,
2010-12-25, 02:11:04,VALID,1006.46,VALID,0,VALID,104,VALID,0.105969,VALID,23.0103,VALID,68,VALID,0,
2010-12-25, 02:12:04,VALID,1006.47,VALID,0,VALID,104,VALID,0.105969,VALID,23.0316,VALID,68,VALID,0,
2010-12-25, 02:13:04,VALID,1006.47,VALID,0,VALID,104,VALID,0.105969,VALID,23.0103,VALID,68,VALID,0,
2010-12-25, 02:14:04,VALID,1006.43,VALID,0,VALID,104,VALID,0.105969,VALID,23.0103,VALID,68,VALID,0,
2010-12-25, 02:15:04,VALID,1006.42,VALID,0,VALID,104,VALID,0.105969,VALID,23.0121,VALID,68,VALID,0,
2010-12-25, 02:16:04,VALID,1006.4,VALID,0,VALID,104,VALID,0.105969,VALID,22.9714,VALID,68,VALID,0,
2010-12-25, 02:17:04,VALID,1006.4,VALID,0,VALID,104,VALID,0.105969,VALID,22.9714,VALID,68,VALID,0,
2010-12-25, 02:18:04,VALID,1006.38,VALID,0,VALID,104,VALID,0.105969,VALID,22.9926,VALID,68,VALID,0,
2010-12-25, 02:19:04,VALID,1006.38,VALID,0,VALID,104,VALID,0.105969,VALID,22.9909,VALID,68,VALID,0,
2010-12-25, 02:20:04,VALID,1006.39,VALID,0,VALID,104,VALID,0,VALID,22.9714,VALID,68,VALID,0,
2010-12-25, 02:21:04,VALID,1006.39,VALID,0,VALID,104,VALID,0.105969,VALID,22.9714,VALID,68,VALID,0,
2010-12-25, 02:22:04,VALID,1006.41,VALID,0,VALID,104,VALID,0.105969,VALID,22.9926,VALID,68,VALID,0,
2010-12-25, 02:23:04,VALID,1006.39,VALID,0,VALID,104,VALID,0.105969,VALID,22.9714,VALID,68,VALID,0,
2010-12-25, 02:24:04,VALID,1006.4,VALID,0,VALID,104,VALID,0,VALID,22.9731,VALID,68,VALID,0,
2010-12-25, 02:25:04,VALID,1006.42,VALID,0,VALID,104,VALID,0,VALID,22.9536,VALID,68,VALID,0,
2010-12-25, 02:26:04,VALID,1006.45,VALID,0,VALID,104,VALID,0,VALID,22.9536,VALID,68,VALID,0,
2010-12-25, 02:27:04,VALID,1006.47,VALID,0,VALID,104,VALID,0,VALID,22.9749,VALID,68,VALID,0,
2010-12-25, 02:28:04,VALID,1006.46,VALID,0,VALID,104,VALID,0,VALID,22.9342,VALID,68,VALID,0,
2010-12-25, 02:29:04,VALID,1006.45,VALID,0,VALID,104,VALID,0,VALID,22.9342,VALID,68,VALID,0,
2010-12-25, 02:30:04,VALID,1006.45,VALID,0,VALID,104,VALID,0,VALID,22.9731,VALID,68,VALID,0,
2010-12-25, 02:31:04,VALID,1006.49,VALID,0,VALID,104,VALID,0,VALID,22.9536,VALID,68,VALID,0,
2010-12-25, 02:32:04,VALID,1006.49,VALID,0,VALID,104,VALID,0,VALID,22.9731,VALID,68,VALID,0,
2010-12-25, 02:33:04,VALID,1006.48,VALID,0,VALID,104,VALID,0,VALID,22.9749,VALID,68,VALID,0,
2010-12-25, 02:34:04,VALID,1006.47,VALID,0,VALID,104,VALID,0,VALID,22.9536,VALID,68,VALID,0,
2010-12-25, 02:35:04,VALID,1006.44,VALID,0,VALID,104,VALID,0,VALID,22.9536,VALID,68,VALID,0,
2010-12-25, 02:36:04,VALID,1006.46,VALID,0,VALID,104,VALID,0,VALID,22.9342,VALID,68,VALID,0,
2010-12-25, 02:37:04,VALID,1006.45,VALID,0,VALID,104,VALID,0,VALID,22.9342,VALID,68,VALID,0,
2010-12-25, 02:38:04,VALID,1006.49,VALID,0,VALID,104,VALID,0,VALID,22.9342,VALID,68,VALID,0,
2010-12-25, 02:39:04,VALID,1006.45,VALID,0,VALID,104,VALID,0,VALID,22.9342,VALID,68,VALID,0,
2010-12-25, 02:40:04,VALID,1006.43,VALID,0,VALID,104,VALID,0,VALID,22.9342,VALID,68,VALID,0,
2010-12-25, 02:41:04,VALID,1006.39,VALID,0,VALID,104,VALID,0,VALID,22.9536,VALID,68,VALID,0,
2010-12-25, 02:42:04,VALID,1006.38,VALID,0,VALID,104,VALID,0,VALID,22.9342,VALID,68,VALID,0,
2010-12-25, 02:43:04,VALID,1006.38,VALID,0,VALID,104,VALID,0,VALID,22.9129,VALID,68,VALID,0,
2010-12-25, 02:44:04,VALID,1006.37,VALID,0,VALID,104,VALID,0,VALID,22.9342,VALID,68,VALID,0,
2010-12-25, 02:45:04,VALID,1006.37,VALID,0,VALID,104,VALID,0,VALID,22.9342,VALID,68,VALID,0,
2010-12-25, 02:46:04,VALID,1006.36,VALID,0,VALID,104,VALID,0,VALID,22.9342,VALID,68,VALID,0,
2010-12-25, 02:47:04,VALID,1006.36,VALID,0,VALID,104,VALID,0,VALID,22.9147,VALID,68,VALID,0,
2010-12-25, 02:48:04,VALID,1006.38,VALID,0,VALID,104,VALID,0,VALID,22.9147,VALID,68,VALID,0,
2010-12-25, 02:49:04,VALID,1006.35,VALID,0,VALID,104,VALID,0,VALID,22.9342,VALID,68,VALID,0,
2010-12-25, 02:50:04,VALID,1006.32,VALID,0,VALID,104,VALID,0,VALID,22.9536,VALID,68,VALID,0,
2010-12-25, 02:51:04,VALID,1006.31,VALID,0,VALID,104,VALID,0,VALID,22.9536,VALID,68,VALID,0,
2010-12-25, 02:52:04,VALID,1006.29,VALID,0,VALID,104,VALID,0,VALID,22.9731,VALID,68,VALID,0,
2010-12-25, 02:53:04,VALID,1006.28,VALID,0,VALID,104,VALID,0,VALID,22.9536,VALID,68,VALID,0,
2010-12-25, 02:54:04,VALID,1006.27,VALID,0,VALID,104,VALID,0,VALID,22.9731,VALID,68,VALID,0,
2010-12-25, 02:55:04,VALID,1006.26,VALID,0,VALID,104,VALID,0,VALID,22.9714,VALID,68,VALID,0,
2010-12-25, 02:56:04,VALID,1006.27,VALID,0,VALID,104,VALID,0.105969,VALID,22.9714,VALID,68,VALID,0,
2010-12-25, 02:57:04,VALID,1006.27,VALID,0,VALID,104,VALID,0.105969,VALID,22.9714,VALID,68,VALID,0,
2010-12-25, 02:58:04,VALID,1006.27,VALID,0,VALID,104,VALID,0.105969,VALID,22.9909,VALID,68,VALID,0,
2010-12-25, 02:59:04,VALID,1006.28,VALID,0,VALID,104,VALID,0.105969,VALID,22.9696,VALID,68,VALID,0,
2010-12-25, 03:00:04,VALID,1006.3,VALID,0,VALID,104,VALID,0.105969,VALID,22.9909,VALID,68,VALID,0,
2010-12-25, 03:01:04,VALID,1006.27,VALID,0,VALID,104,VALID,0.105969,VALID,22.9909,VALID,68,VALID,0,
2010-12-25, 03:02:04,VALID,1006.26,VALID,0,VALID,104,VALID,0.105969,VALID,22.9909,VALID,68,VALID,0,
2010-12-25, 03:03:04,VALID,1006.25,VALID,0,VALID,104,VALID,0.105969,VALID,23.0103,VALID,68,VALID,0,
2010-12-25, 03:04:04,VALID,1006.25,VALID,0,VALID,104,VALID,0,VALID,23.0103,VALID,68,VALID,0,
2010-12-25, 03:05:04,VALID,1006.24,VALID,0,VALID,104,VALID,0.105969,VALID,23.0103,VALID,68,VALID,0,
2010-12-25, 03:06:04,VALID,1006.24,VALID,0,VALID,104,VALID,0.105969,VALID,23.0103,VALID,68,VALID,0,
2010-12-25, 03:07:04,VALID,1006.24,VALID,0,VALID,104,VALID,0.105969,VALID,23.0103,VALID,68,VALID,0,
2010-12-25, 03:08:04,VALID,1006.22,VALID,0,VALID,104,VALID,0.105969,VALID,22.9909,VALID,68,VALID,0,
2010-12-25, 03:09:04,VALID,1006.22,VALID,0,VALID,104,VALID,0.105969,VALID,22.9909,VALID,68,VALID,0,
2010-12-25, 03:10:04,VALID,1006.24,VALID,0,VALID,104,VALID,0,VALID,22.9731,VALID,68,VALID,0,
2010-12-25, 03:11:04,VALID,1006.24,VALID,0,VALID,104,VALID,0,VALID,22.9943,VALID,68,VALID,0,
2010-12-25, 03:12:04,VALID,1006.22,VALID,0,VALID,104,VALID,0,VALID,22.9536,VALID,68,VALID,0,
2010-12-25, 03:13:04,VALID,1006.22,VALID,0,VALID,104,VALID,0,VALID,22.9536,VALID,68,VALID,0,
2010-12-25, 03:14:04,VALID,1006.18,VALID,0,VALID,104,VALID,0,VALID,22.9749,VALID,68,VALID,0.207813,
2010-12-25, 03:15:04,VALID,1006.19,VALID,0,VALID,104,VALID,0,VALID,22.9536,VALID,68,VALID,0.472266,
2010-12-25, 03:16:04,VALID,1006.2,VALID,0,VALID,104,VALID,0,VALID,22.9731,VALID,68,VALID,0,
2010-12-25, 03:17:04,VALID,1006.2,VALID,0,VALID,104,VALID,0,VALID,22.9943,VALID,68,VALID,0.345313,
2010-12-25, 03:18:04,VALID,1006.23,VALID,0,VALID,104,VALID,0,VALID,23.0138,VALID,68,VALID,0.219531,
2010-12-25, 03:19:04,VALID,1006.25,VALID,0,VALID,104,VALID,0,VALID,22.9926,VALID,68,VALID,0.0351563,
2010-12-25, 03:20:04,VALID,1006.26,VALID,0,VALID,104,VALID,0,VALID,23.0121,VALID,68,VALID,0.259375,
2010-12-25, 03:21:04,VALID,1006.28,VALID,0,VALID,104,VALID,0,VALID,23.0121,VALID,68,VALID,0.199609,
2010-12-25, 03:22:04,VALID,1006.24,VALID,0,VALID,104,VALID,0,VALID,23.0333,VALID,68,VALID,0.125,
2010-12-25, 03:23:04,VALID,1006.22,VALID,0,VALID,104,VALID,0,VALID,23.0121,VALID,68,VALID,0,
2010-12-25, 03:24:04,VALID,1006.22,VALID,0,VALID,104,VALID,0,VALID,23.0121,VALID,112,VALID,0,
2010-12-25, 03:25:04,VALID,1006.23,VALID,0,VALID,104,VALID,0,VALID,23.0121,VALID,112,VALID,0,
2010-12-25, 03:26:04,VALID,1006.21,VALID,0,VALID,104,VALID,0,VALID,23.0121,VALID,112,VALID,0,
2010-12-25, 03:27:04,VALID,1006.19,VALID,0,VALID,104,VALID,0,VALID,23.0316,VALID,112,VALID,0.624219,
2010-12-25, 03:28:04,VALID,1006.21,VALID,0,VALID,104,VALID,0,VALID,23.0316,VALID,112,VALID,0.203906,
2010-12-25, 03:29:04,VALID,1006.22,VALID,0,VALID,104,VALID,0,VALID,23.0316,VALID,112,VALID,0.309766,
2010-12-25, 03:30:04,VALID,1006.22,VALID,0,VALID,104,VALID,0,VALID,23.0316,VALID,113,VALID,0.625,
2010-12-25, 03:31:04,VALID,1006.22,VALID,0,VALID,104,VALID,0,VALID,23.0511,VALID,118,VALID,0.360938,
2010-12-25, 03:32:04,VALID,1006.19,VALID,0,VALID,104,VALID,0,VALID,23.0511,VALID,118,VALID,0,
2010-12-25, 03:33:04,VALID,1006.22,VALID,0,VALID,104,VALID,0,VALID,23.0511,VALID,118,VALID,0,
2010-12-25, 03:34:04,VALID,1006.21,VALID,0,VALID,104,VALID,0,VALID,23.0705,VALID,118,VALID,0,
2010-12-25, 03:35:04,VALID,1006.2,VALID,0,VALID,104,VALID,0,VALID,23.0918,VALID,118,VALID,0,
2010-12-25, 03:36:04,VALID,1006.2,VALID,0,VALID,103.992,VALID,0,VALID,23.0705,VALID,108,VALID,0.366797,
2010-12-25, 03:37:04,VALID,1006.21,VALID,0,VALID,103.992,VALID,0,VALID,23.09,VALID,108,VALID,0.30625,
2010-12-25, 03:38:04,VALID,1006.23,VALID,0,VALID,103.992,VALID,0,VALID,23.0705,VALID,109,VALID,0.585156,
2010-12-25, 03:39:04,VALID,1006.23,VALID,0,VALID,104,VALID,0,VALID,23.0918,VALID,108,VALID,0.483203,
2010-12-25, 03:40:04,VALID,1006.21,VALID,0,VALID,104,VALID,0,VALID,23.09,VALID,108,VALID,0.614453,
2010-12-25, 03:41:04,VALID,1006.19,VALID,0,VALID,104,VALID,0,VALID,23.09,VALID,109,VALID,0.411328,
2010-12-25, 03:42:04,VALID,1006.12,VALID,0,VALID,104,VALID,0,VALID,23.1112,VALID,112,VALID,0.55,
2010-12-25, 03:43:04,VALID,1006.14,VALID,0,VALID,104,VALID,0,VALID,23.1112,VALID,112,VALID,0.161328,
2010-12-25, 03:44:04,VALID,1006.13,VALID,0,VALID,104,VALID,0,VALID,23.09,VALID,112,VALID,0.250781,
2010-12-25, 03:45:04,VALID,1006.14,VALID,0,VALID,104,VALID,0,VALID,23.1095,VALID,112,VALID,0.631641,
2010-12-25, 03:46:04,VALID,1006.13,VALID,0,VALID,104,VALID,0,VALID,23.09,VALID,112,VALID,0.222656,
2010-12-25, 03:47:04,VALID,1006.15,VALID,0,VALID,103.985,VALID,0,VALID,23.1307,VALID,112,VALID,0.177344,
2010-12-25, 03:48:04,VALID,1006.18,VALID,0,VALID,103.992,VALID,0,VALID,23.09,VALID,110,VALID,0.523438,
2010-12-25, 03:49:04,VALID,1006.18,VALID,0,VALID,103.985,VALID,0,VALID,23.1095,VALID,110,VALID,0.00585938,
2010-12-25, 03:50:04,VALID,1006.17,VALID,0,VALID,103.992,VALID,0,VALID,23.09,VALID,110,VALID,0.31875,
2010-12-25, 03:51:04,VALID,1006.18,VALID,0,VALID,103.992,VALID,0,VALID,23.09,VALID,110,VALID,0.240625,
2010-12-25, 03:52:04,VALID,1006.15,VALID,0,VALID,104,VALID,0,VALID,23.09,VALID,43,VALID,0.564844,
2010-12-25, 03:53:04,VALID,1006.13,VALID,0,VALID,104,VALID,0,VALID,23.0918,VALID,46,VALID,0.3375,
2010-12-25, 03:54:04,VALID,1006.1,VALID,0,VALID,104,VALID,0,VALID,23.0918,VALID,56,VALID,0.209766,
2010-12-25, 03:55:04,VALID,1006.09,VALID,0,VALID,104,VALID,0,VALID,23.0723,VALID,56,VALID,0.205469,
2010-12-25, 03:56:04,VALID,1006.08,VALID,0,VALID,104,VALID,0,VALID,23.0918,VALID,56,VALID,0,
2010-12-25, 03:57:04,VALID,1006.08,VALID,0,VALID,103.985,VALID,0,VALID,23.0511,VALID,56,VALID,0,
2010-12-25, 03:58:04,VALID,1006.14,VALID,0,VALID,103.992,VALID,0,VALID,23.0723,VALID,56,VALID,0.0800781,
2010-12-25, 03:59:04,VALID,1006.09,VALID,0,VALID,104,VALID,0,VALID,23.0723,VALID,56,VALID,0.457031,
2010-12-25, 04:00:04,VALID,1006.08,VALID,0,VALID,103.977,VALID,0,VALID,23.0511,VALID,88,VALID,0.0597656,
2010-12-25, 04:01:04,VALID,1006.09,VALID,0,VALID,103.97,VALID,0,VALID,23.0511,VALID,88,VALID,0,